UAL427 YSSY-KSFO

Flight info

Callsign UAL427
Flight time N/A
Altitude 31000
Route RIC6/34L OLSEM H252 UPNEX H140 IDNER H66 LAGOB/N0494F320 H252 BN Q67 BIXAD/N0492F310 A598 PUGEL/N0497F330 A598 RIPNA 11S160E 08S165E 05S170E 02N180E/N0492F350 09N170W 15N160W 20N150W/N0474F370 23N145W FIZEL 30N134W 33N130W CINNY PIRAT3
Aircraft B77W/H-SDE1E2E3FGHIJ2J3J4J5M1RWXY/LB1D1

Departure

Time 2026-04-26 08:10
Airport Sydney Kingsford Smith International Airport (YSSY)

Arrival

Time N/A
Airport San Francisco International Airport (KSFO)
Time Latitude Longitude Altitude Speed Heading
2026-04-26 07:24 -33.93830 151.16834 34 ft 0 kts 74°
2026-04-26 07:52 -33.93833 151.16818 34 ft 2 kts 74°
2026-04-26 07:52 -33.93837 151.16801 33 ft 2 kts 80°
2026-04-26 07:52 -33.93838 151.16783 33 ft 2 kts 98°
2026-04-26 07:53 -33.93834 151.16766 33 ft 2 kts 112°
2026-04-26 07:53 -33.93827 151.16750 32 ft 2 kts 127°
2026-04-26 07:53 -33.93817 151.16737 32 ft 2 kts 141°
2026-04-26 07:53 -33.93805 151.16727 32 ft 2 kts 155°
2026-04-26 07:54 -33.93797 151.16724 32 ft 0 kts 163°
2026-04-26 07:54 -33.93794 151.16722 32 ft 0 kts 163°
2026-04-26 07:59 -33.93795 151.16722 32 ft 0 kts 162°
2026-04-26 07:59 -33.93811 151.16728 32 ft 4 kts 162°
2026-04-26 07:59 -33.93854 151.16745 32 ft 8 kts 163°
2026-04-26 08:00 -33.93929 151.16771 31 ft 13 kts 163°
2026-04-26 08:00 -33.94009 151.16797 31 ft 8 kts 165°
2026-04-26 08:00 -33.94054 151.16827 30 ft 6 kts 109°
2026-04-26 08:00 -33.94051 151.16879 30 ft 5 kts 77°
2026-04-26 08:01 -33.94043 151.16919 30 ft 4 kts 76°
2026-04-26 08:01 -33.94035 151.16954 30 ft 4 kts 74°
2026-04-26 08:01 -33.94022 151.17013 30 ft 10 kts 75°
2026-04-26 08:01 -33.93999 151.17105 29 ft 11 kts 73°
2026-04-26 08:02 -33.93979 151.17195 26 ft 10 kts 82°
2026-04-26 08:02 -33.94026 151.17236 25 ft 9 kts 162°
2026-04-26 08:02 -33.94107 151.17258 26 ft 15 kts 168°
2026-04-26 08:02 -33.94222 151.17288 26 ft 15 kts 167°
2026-04-26 08:03 -33.94327 151.17316 28 ft 16 kts 168°
2026-04-26 08:03 -33.94455 151.17349 28 ft 20 kts 167°
2026-04-26 08:03 -33.94611 151.17390 27 ft 25 kts 167°
2026-04-26 08:03 -33.94801 151.17436 25 ft 30 kts 167°
2026-04-26 08:04 -33.95023 151.17496 24 ft 34 kts 169°
2026-04-26 08:04 -33.95273 151.17566 21 ft 37 kts 166°
2026-04-26 08:04 -33.95517 151.17621 21 ft 33 kts 169°
2026-04-26 08:04 -33.95736 151.17680 21 ft 30 kts 167°
2026-04-26 08:05 -33.95933 151.17731 21 ft 27 kts 168°
2026-04-26 08:05 -33.96110 151.17778 21 ft 24 kts 168°
2026-04-26 08:05 -33.96266 151.17818 21 ft 21 kts 168°
2026-04-26 08:05 -33.96392 151.17851 19 ft 10 kts 164°
2026-04-26 08:06 -33.96429 151.17883 20 ft 0 kts 121°
2026-04-26 08:07 -33.96430 151.17888 20 ft 2 kts 107°
2026-04-26 08:07 -33.96434 151.17958 21 ft 14 kts 83°
2026-04-26 08:07 -33.96376 151.18043 21 ft 12 kts
2026-04-26 08:08 -33.96338 151.18042 21 ft 0 kts 348°
2026-04-26 08:08 -33.96338 151.18041 21 ft 0 kts 348°
2026-04-26 08:09 -33.96283 151.18027 21 ft 24 kts 348°
2026-04-26 08:09 -33.95905 151.17932 21 ft 86 kts 347°
2026-04-26 08:09 -33.95118 151.17726 25 ft 142 kts 347°
2026-04-26 08:09 -33.93966 151.17424 64 ft 187 kts 348°
2026-04-26 08:10 -33.92657 151.17068 516 ft 194 kts 349°
2026-04-26 08:10 -33.91351 151.16727 1282 ft 195 kts 351°
2026-04-26 08:10 -33.90019 151.16348 1764 ft 202 kts 339°
2026-04-26 08:10 -33.88816 151.15395 2200 ft 212 kts 319°
2026-04-26 08:11 -33.87756 151.14073 2568 ft 226 kts 315°
2026-04-26 08:11 -33.86649 151.12636 2929 ft 242 kts 315°
2026-04-26 08:11 -33.85468 151.11098 3345 ft 257 kts 314°
2026-04-26 08:11 -33.84236 151.09492 3951 ft 264 kts 314°
2026-04-26 08:12 -33.82814 151.08096 4549 ft 268 kts 336°
2026-04-26 08:12 -33.81026 151.07582 5161 ft 269 kts
2026-04-26 08:12 -33.79211 151.08107 5779 ft 271 kts 30°
2026-04-26 08:12 -33.77796 151.09561 6334 ft 275 kts 56°
2026-04-26 08:13 -33.77008 151.11646 6929 ft 278 kts 72°
2026-04-26 08:13 -33.76441 151.13876 7533 ft 281 kts 73°
2026-04-26 08:13 -33.75880 151.16136 8120 ft 284 kts 73°
2026-04-26 08:13 -33.75319 151.18394 8725 ft 287 kts 73°
2026-04-26 08:14 -33.74748 151.20686 9327 ft 289 kts 73°
2026-04-26 08:14 -33.74171 151.23006 9914 ft 292 kts 73°
2026-04-26 08:14 -33.73589 151.25349 10472 ft 296 kts 73°
2026-04-26 08:14 -33.72989 151.27759 10763 ft 312 kts 73°
2026-04-26 08:15 -33.72347 151.30335 11041 ft 328 kts 73°
2026-04-26 08:15 -33.71685 151.32991 11340 ft 344 kts 73°
2026-04-26 08:15 -33.70977 151.35826 11664 ft 359 kts 74°
2026-04-26 08:15 -33.70247 151.38747 11995 ft 373 kts 74°
2026-04-26 08:16 -33.69481 151.41809 12479 ft 383 kts 74°
2026-04-26 08:16 -33.68708 151.44893 13110 ft 387 kts 74°
2026-04-26 08:16 -33.67926 151.48010 13750 ft 391 kts 74°
2026-04-26 08:16 -33.67132 151.51131 14392 ft 395 kts 72°
2026-04-26 08:17 -33.66013 151.54179 15025 ft 399 kts 62°
2026-04-26 08:17 -33.64440 151.56953 15647 ft 403 kts 51°
2026-04-26 08:17 -33.62457 151.59357 16262 ft 407 kts 40°
2026-04-26 08:17 -33.60103 151.61311 16877 ft 410 kts 30°
2026-04-26 08:18 -33.57473 151.62714 17478 ft 414 kts 19°
2026-04-26 08:18 -33.54718 151.63628 18064 ft 417 kts 15°
2026-04-26 08:18 -33.51866 151.64481 18666 ft 419 kts 15°
2026-04-26 08:18 -33.48976 151.65344 19246 ft 423 kts 14°
2026-04-26 08:19 -33.46462 151.66054 19733 ft 426 kts 11°
2026-04-26 08:19 -33.43509 151.66393 20275 ft 430 kts
2026-04-26 08:19 -33.40472 151.66112 20813 ft 434 kts 352°